CAPE
69 419 784 1187 1289 1539 1609 1854 1972 2033 2057 2342 2145 1814 1659 1671 2152 2230 1718 1556 1428 1389 1151 1219 1300 1432 1437 1714 1946 2182 2031 2138 2259 2484 2495 2451 2476 2208 2193 1976 2303 1409 2108
92 523 981 1822 1461 1573 1641 1787 1802 1971 2110 2103 1968 1841 2112 2300 2105 1867 1822 1982 2160 1835 1550 1094 1380 1349 1208 1545 1526 1516 1552 1987 2294 2351 2458 2371 2394 2099 2102 1759 2305 1824 1666
159 477 1000 2031 1959 2256 2241 2071 2200 1939 1994 1993 2058 2333 2061 1999 2007 1748 1847 1872 1868 1895 1753 1572 1355 1542 1702 1184 1632 1914 1842 2108 2130 1963 1722 1793 2079 2115 2084 2017 1825 1873 1970
94 183 702 1909 2146 1943 2103 2295 2294 2236 2220 2220 2099 1977 2109 1920 1669 1904 1991 1811 1799 1720 1593 1633 1747 1801 1849 1671 1423 1801 2020 2163 1986 1665 1649 1517 1665 2092 1992 2101 1946 1912 1936
90 137 1304 1852 1983 2088 2117 2139 2148 1809 1972 1960 1874 1951 1994 1914 1898 1934 1856 1584 1526 1741 1564 1510 1283 1324 1228 1271 1561 1665 1771 1710 1560 1680 1835 1655 1770 2064 2112 1955 1970 1998 2158
168 244 1360 1760 1883 1732 1955 2067 2003 2005 2040 2029 1950 1977 1888 1855 1728 1926 1840 1928 1791 1674 1448 1500 1293 1320 1394 1461 1605 1646 1414 1145 1523 1284 1635 1748 1925 2002 1946 1924 1961 1877 1890
163 398 1140 1894 2290 1786 1920 1919 1981 1984 1998 2082 1952 1949 1697 1829 1978 1862 1838 1760 1787 1536 1467 1415 1274 1232 1394 1669 1716 1790 1120 861 1356 1378 1762 1611 1900 2055 2018 1819 1871 1737 1787
168 305 947 1559 1800 1725 1677 1916 2046 1966 1904 2009 2039 2045 2105 2094 2013 1888 1750 1685 1719 1667 1516 1396 1348 1212 1502 1837 1839 1490 984 761 1106 1354 1718 1508 1927 2168 1900 1904 1835 1862 1995
180 415 714 1289 1622 1581 1993 1884 1909 1843 1927 2093 1925 2157 2194 2085 1863 1721 1555 1522 1462 1345 1188 1105 1236 1329 1397 1894 1842 1510 1562 1146 948 939 613 794 1839 1854 1904 1786 1813 1618 1778
200 565 507 898 1092 1428 1505 1792 1861 2020 1871 2071 2153 2138 2104 2036 1839 1616 1934 1793 1173 990 1095 1234 1129 1281 1645 1780 1762 1494 1539 1286 623 835 1344 1209 1818 1777 1815 1770 1795 1835 1301
196 625 284 756 1130 1407 1424 1722 1846 1859 2053 2053 2101 2188 1859 983 871 1343 1770 1411 1411 1292 992 979 1110 1338 1563 1749 1804 1529 1749 489 510 793 873 1585 1659 1642 1767 1754 1813 1735 1511
203 488 365 1099 1065 1405 1158 1589 1699 1597 1385 1332 1496 1585 1183 1061 1059 765 1365 1437 1240 1236 1597 1605 1322 1205 1410 1261 1257 1446 758 745 453 783 951 1458 1568 1567 1778 1746 1697 1675 1762
149 197 243 694 887 1329 1813 1524 1419 1031 1226 1474 1641 1426 1286 1008 531 796 1161 1228 1091 1240 1201 1386 1515 1098 1095 942 892 877 894 604 488 515 1110 1349 1515 1517 1566 1559 1572 1665 1588
115 245 235 568 898 1061 1320 883 822 823 859 965 1105 1467 1456 1171 956 826 970 990 1100 1064 1115 1174 776 966 886 1309 1139 947 786 298 474 618 1025 1382 950 1682 1649 1534 1480 1409 1513
135 312 285 552 1028 1132 1379 873 813 901 908 844 1043 1179 866 964 1219 1108 1201 1043 1030 971 813 843 758 854 1206 988 1032 946 721 345 167 464 1201 1165 1147 645 1245 1604 1590 1446 1168
153 285 367 497 886 1110 1244 1273 1363 1133 1049 821 705 672 1235 1290 1794 1061 954 1182 1506 1145 974 794 684 375 164 492 1134 858 705 558 484 289 629 1103 931 1040 649 528 899 1017 1134
145 319 426 503 637 1000 1156 1322 1038 905 747 992 954 1181 1573 1799 1905 1114 1118 1079 1401 1313 1365 1057 663 355 116 148 768 826 615 714 542 527 478 591 967 918 952 1083 673 547 558
55 207 490 257 274 711 786 934 584 669 906 1080 1266 1352 1433 1686 1718 1696 1067 1155 1385 1035 790 341 120 446 400 82 293 372 367 446 522 509 486 502 431 890 1000 821 914 1022 972
72 230 495 426 259 378 652 518 552 785 970 1097 1152 1236 1859 1741 1829 1727 1300 1942 1474 1064 1088 454 234 304 149 74 73 88 91 212 212 214 530 341 336 394 611 982 882 785 852
99 217 470 497 479 528 479 523 361 651 990 1131 1199 1207 1747 1698 1854 2113 1553 1382 1242 753 967 959 529 314 202 87 44 40 73 68 182 152 189 144 90 201 266 769 1022 785 755
176 425 440 562 744 706 397 183 371 604 683 901 973 1370 1914 1794 1971 2410 1870 1118 1258 795 862 1220 585 952 176 133 74 29 21 41 357 229 145 76 204 142 244 286 437 524 793
321 502 637 665 893 975 273 439 338 553 511 770 1234 1837 2006 1957 2198 2085 1594 1157 1449 1425 819 867 1161 220 111 101 86 51 44 56 68 139 177 158 222 176 213 365 181 370 176
468 620 776 906 943 1039 707 222 556 640 916 1199 1529 1541 1857 2027 2167 2243 1626 1430 1050 1192 976 1255 1352 681 113 222 410 500 40 318 64 90 299 185 346 271 274 397 363 258 385
450 664 826 1088 1101 989 879 796 1619 754 687 496 1046 1049 1642 2084 2062 2227 2307 1777 1503 1895 1309 1268 1243 404 728 137 72 41 315 505 110 317 86 150 288 346 421 438 349 441 496
338 602 857 1161 1594 1695 1298 1435 756 1000 101 304 719 1313 1832 2356 2136 1928 2287 1667 1683 1369 1729 1796 1868 1550 270 224 50 120 310 257 280 216 152 293 242 175 227 550 390 406 582
426 509 751 1638 1795 1564 1265 986 1739 1444 859 521 1118 898 978 1180 1839 2159 2227 2398 1705 1464 2030 1811 1748 2065 1383 666 202 352 326 422 473 379 271 514 413 414 387 434 529 513 521
CIN
-28 -1 -0 -0 -0 -0 -0 -0 -0 -0 -0 -0 -0 -0 -0 -2 -0 -0 -0 -0 -0 -1 -12 -12 -1 -0 -0 -0 -0 -0 -1 -1 -1 -0 -0 -0 -0 -0 -2 -3 -2 -0 -0
-59 -0 -0 -0 -0 -0 -0 -0 -0 -0 -0 -0 -0 -0 -0 -0 -0 -0 -0 -0 -0 -0 -0 -6 -0 -0 -0 -0 -0 -0 -0 -0 -0 -0 -0 -0 -0 -0 -1 -1 -1 -0 -0
-18 -0 -0 -0 -0 -0 -0 -0 -0 -0 -0 -0 -0 -0 -0 -0 -0 -5 -0 -0 -0 -0 -0 -0 -0 -0 -0 -0 -0 -0 -0 -1 -0 -6 -1 -1 -0 -0 -0 -0 -0 -1 -0
-26 -16 -0 -1 -0 -0 -0 -0 -0 -0 -0 -0 -0 -0 -0 -0 -0 -0 -1 -0 -0 -0 -0 -0 -0 -0 -0 -0 -0 -0 -0 -0 -5 -20 -2 -0 -0 -0 -0 -0 -0 -0 -0
-59 -23 -0 -0 -0 -0 -0 -0 -0 -0 -0 -0 -0 -0 -0 -0 -0 -0 -0 -0 -0 -0 -0 -0 -0 -1 -3 -2 -0 -0 -0 -3 -14 -4 -0 -2 -0 -0 -0 -0 -0 -0 -2
-35 -3 -1 -0 -0 -0 -0 -0 -0 -0 -0 -0 -0 -0 -0 -0 -0 -0 -0 -0 -0 -0 -0 -0 -2 -2 -1 -2 -1 -0 -2 -13 -4 -1 -0 -1 -0 -0 -0 -1 -2 -0 -0
-29 -0 -0 -0 -0 -0 -0 -0 -0 -0 -0 -0 -0 -0 -0 -0 -0 -0 -0 -0 -0 -0 -0 -1 -0 -6 -5 -3 -2 -0 -9 -16 -0 -0 -0 -0 -0 -0 -0 -0 -0 -0 -0
-23 -0 -0 -0 -0 -0 -0 -0 -0 -0 -0 -0 -0 -0 -0 -0 -0 -0 -0 -0 -0 -0 -1 -5 -7 -6 -5 -4 -0 -5 -14 -6 -0 -0 -0 -0 -1 -0 -0 -0 -0 -0 -0
-24 -0 -0 -0 -0 -0 -0 -0 -0 -0 -0 -2 -0 -0 -1 -0 -0 -0 -0 -0 -0 -2 -7 -11 -9 -7 -9 -4 -4 -8 -7 -11 -0 -0 -0 -0 -3 -0 -0 -0 -0 -0 -0
-14 -0 -0 -0 -0 -0 -0 -0 -0 -0 -2 -1 -0 -1 -0 -0 -0 -2 -3 -0 -0 -9 -7 -9 -12 -11 -5 -9 -7 -14 -18 -25 -0 -0 -0 -0 -0 -0 -0 -0 -0 -0 -0
-13 -0 -0 -0 -0 -0 -0 -0 -0 -0 -0 -0 -1 -2 -7 -0 -0 -1 -5 -1 -6 -10 -17 -16 -16 -13 -15 -8 -7 -21 -40 -0 -0 -0 -0 -7 -0 -0 -0 -0 -0 -0 -0
-9 -0 -0 -0 -0 -0 -0 -0 -0 -0 -0 -0 -0 -0 -0 -0 -0 -0 -2 -10 -19 -13 -17 -14 -18 -30 -35 -3 -0 -34 -0 -0 -0 -0 -0 -2 -0 -0 -0 -0 -0 -0 -0
-28 -7 -7 -0 -0 -0 -0 -0 -0 -0 -0 -0 -0 -0 -0 -0 -0 -0 -0 -0 -0 -18 -0 -8 -9 -0 -0 -0 -0 -0 -0 -0 -0 -0 -9 -1 -0 -0 -0 -0 -0 -0 -0
-3 -0 -11 -0 -0 -0 -0 -0 -0 -0 -0 -0 -0 -0 -0 -0 -0 -0 -0 -0 -0 -0 -0 -0 -0 -4 -0 -0 -0 -0 -0 -0 -0 -0 -5 -1 -2 -0 -0 -0 -0 -0 -0
-5 -0 -4 -0 -0 -0 -0 -0 -0 -0 -0 -0 -0 -0 -0 -0 -0 -0 -0 -0 -0 -0 -0 -0 -0 -1 -2 -0 -0 -0 -0 -0 -1 -0 -1 -7 -1 -4 -0 -0 -0 -0 -0
-9 -0 -0 -0 -0 -0 -0 -0 -0 -0 -0 -0 -0 -0 -4 -0 -0 -0 -1 -0 -0 -0 -0 -0 -0 -0 -6 -0 -0 -0 -0 -0 -1 -0 -0 -3 -11 -3 -8 -6 -0 -0 -0
-12 -2 -0 -1 -2 -0 -0 -0 -0 -0 -0 -0 -0 -7 -0 -0 -0 -4 -0 -0 -0 -0 -0 -0 -0 -0 -0 -23 -0 -0 -0 -0 -0 -0 -0 -0 -10 -31 -8 -0 -2 -7 -5
-21 -7 -1 -5 -9 -2 -1 -0 -0 -0 -0 -0 -0 -0 -1 -0 -3 -0 -3 -0 -0 -0 -0 -0 -0 -5 -7 -0 -0 -0 -0 -0 -0 -0 -0 -0 -0 -0 -27 -15 -5 -2 -0
-24 -14 -2 -5 -11 -8 -4 -8 -3 -0 -0 -0 -0 -0 -0 -0 -0 -0 -0 -0 -0 -0 -0 -0 -2 -6 -1 -0 -0 -2 -5 -6 -3 -4 -0 -0 -1 -0 -0 -40 -17 -10 -2
-16 -17 -4 -3 -3 -11 -7 -13 -9 -0 -0 -0 -0 -0 -1 -0 -0 -0 -0 -0 -0 -0 -2 -0 -1 -2 -0 -1 -0 -0 -0 -0 -1 -6 -8 -17 -24 -17 -13 -0 -1 -28 -22
-13 -3 -9 -3 -0 -6 -23 -32 -8 -0 -0 -0 -0 -6 -6 -0 -0 -0 -0 -0 -0 -0 -0 -0 -1 -3 -18 -7 -0 -0 -0 -0 -0 -0 -12 -33 -5 -36 -21 -20 -6 -0 -13
-11 -8 -5 -10 -2 -4 -31 -23 -6 -0 -0 -0 -0 -3 -3 -3 -0 -0 -0 -0 -0 -0 -0 -1 -1 -4 -15 -7 -0 -0 -0 -0 -30 -5 -8 -13 -6 -23 -20 -8 -51 -22 -71
-10 -9 -3 -9 -10 -8 -7 -32 -18 -4 -0 -0 -0 -0 -2 -5 -3 -0 -0 -0 -7 -0 -0 -0 -0 -2 -31 -0 -3 -0 -0 -3 -18 -22 -3 -12 -0 -6 -15 -9 -33 -75 -40
-27 -13 -7 -4 -6 -15 -14 -3 -0 -3 -0 -0 -0 -0 -0 -4 -1 -0 -0 -0 -1 -0 -0 -0 -0 -1 -2 -4 -1 -2 -8 -7 -46 -3 -20 -14 -4 -6 -8 -40 -70 -51 -49
-49 -22 -10 -2 -0 -0 -8 -0 -20 -2 -18 -0 -0 -0 -0 -2 -2 -0 -1 -0 -0 -0 -0 -0 -0 -1 -6 -0 -1 -3 -1 -0 -5 -7 -9 -0 -28 -85 -97 -33 -77 -91 -68
-39 -32 -25 -1 -1 -1 -10 -28 -0 -0 -0 -1 -0 -0 -0 -0 -0 -0 -0 -0 -2 -1 -0 -0 -0 -0 -0 -2 -0 -2 -0 -0 -0 -0 -8 -2 -17 -26 -65 -73 -86 -113 -120
Wind_Speed
5 8 8 12 12 12 12 12 12 13 14 14 14 14 12 12 11 11 10 10 10 11 11 11 9 10 9 9 9 9 9 9 10 12 12 11 13 13 10 10 10 16 14
13 12 13 11 12 13 12 12 12 12 13 12 12 11 11 10 11 10 9 9 9 10 11 11 9 10 10 9 10 8 8 8 10 10 13 13 13 12 11 14 15 14 15
18 16 14 10 12 11 13 12 12 12 12 12 11 11 11 10 10 10 9 10 10 11 11 10 9 10 10 10 9 10 9 9 9 7 8 7 13 13 13 14 14 14 14
17 16 16 10 12 13 12 11 13 13 11 11 11 11 11 10 10 10 10 10 10 9 10 10 10 9 10 11 10 11 11 11 8 3 5 4 13 12 13 14 13 14 15
17 15 17 12 12 12 13 11 13 13 12 12 12 11 11 11 11 10 10 10 9 9 10 10 9 8 8 9 9 10 11 9 4 4 8 7 9 11 12 13 14 13 14
16 16 16 14 14 12 13 13 13 12 12 12 12 12 12 11 11 11 10 10 9 10 10 9 9 8 8 7 8 9 10 5 5 6 9 10 11 11 12 13 14 13 13
17 17 16 14 14 14 13 13 13 12 12 12 12 12 12 12 11 12 10 11 11 10 10 9 9 8 8 10 10 10 9 1 8 7 11 8 11 10 12 12 12 13 12
16 17 17 13 14 13 14 13 12 12 12 11 12 12 13 12 12 12 11 11 10 10 9 8 8 9 10 13 13 12 8 4 7 9 8 9 8 11 11 11 12 13 12
16 16 14 15 14 13 13 13 12 12 11 11 13 12 12 12 12 11 11 10 10 10 9 8 7 8 10 12 12 12 8 4 7 6 9 8 8 9 12 10 11 12 11
15 15 14 14 13 12 13 12 11 11 10 12 13 12 11 12 12 10 10 9 10 9 9 7 7 9 11 11 12 11 8 8 9 7 10 9 7 10 10 10 10 10 11
14 14 14 12 13 9 10 11 12 12 10 13 11 9 13 8 10 10 12 8 8 7 7 6 6 7 11 11 11 8 11 5 5 5 9 6 7 10 10 9 10 9 10
17 16 13 13 14 10 11 10 9 11 10 9 9 7 5 6 6 9 9 6 7 7 7 6 6 7 13 10 8 11 5 5 4 5 9 5 8 9 9 9 8 8 8
18 13 13 12 11 13 7 9 7 5 6 6 7 6 5 5 7 5 6 6 6 6 5 7 9 3 4 2 4 7 7 5 4 6 10 7 6 7 8 8 7 7 7
18 16 15 13 11 9 8 7 7 6 6 6 7 5 5 4 5 3 3 5 3 2 3 1 5 4 3 2 5 6 6 5 4 5 10 6 5 7 5 6 7 7 6
18 17 15 13 11 9 8 6 7 6 6 7 7 5 3 3 3 3 4 1 1 2 2 2 4 4 5 5 6 5 7 7 5 4 8 8 4 4 5 6 7 6 4
17 16 15 14 12 11 9 7 5 5 5 5 5 6 4 2 2 5 4 1 1 1 3 3 3 4 5 7 6 6 6 6 6 2 5 9 6 3 3 3 4 3 3
17 17 16 14 13 12 10 9 7 6 6 6 5 5 4 4 5 3 4 4 3 3 4 5 5 4 5 6 6 5 6 4 7 5 3 4 11 9 4 2 2 2 2
17 17 16 14 15 13 10 8 7 6 6 5 5 6 5 4 3 7 4 4 3 4 4 4 4 9 1 6 5 5 5 5 5 4 5 3 5 5 9 6 4 4 4
18 17 16 15 15 13 10 8 7 7 6 5 5 4 6 4 3 3 3 5 4 1 2 4 3 8 3 6 7 4 4 5 3 6 5 3 5 3 2 10 5 5 4
18 17 15 14 14 13 9 7 7 7 6 5 5 4 5 5 5 4 4 4 4 4 3 3 2 2 2 1 8 2 4 4 3 3 5 4 5 3 1 1 7 9 8
19 18 17 16 14 11 10 10 9 9 7 6 5 5 6 6 6 4 5 4 5 4 3 4 5 5 4 3 7 5 4 4 4 2 1 1 6 2 3 3 3 2 9
21 19 18 17 15 13 10 9 8 7 8 6 5 5 7 8 7 5 2 3 1 4 5 4 3 4 4 4 2 3 6 6 4 2 1 2 2 1 3 3 1 2 3
22 21 19 18 17 15 12 9 7 7 5 6 6 7 7 8 8 5 6 3 3 3 5 5 6 4 6 4 4 5 0 1 2 4 5 4 2 4 1 3 2 3 3
22 21 20 19 18 16 15 12 13 10 10 8 7 7 6 9 9 8 7 6 5 2 3 4 4 3 5 6 4 3 4 6 3 5 4 4 4 5 4 4 3 5 3
23 21 20 19 18 16 16 13 12 12 9 8 8 8 7 7 9 8 7 6 5 6 5 4 3 4 4 2 3 4 2 3 1 5 3 5 5 4 3 5 4 3 5
22 22 21 20 18 18 18 18 14 14 12 10 10 9 8 8 9 9 8 7 7 5 5 6 4 5 5 4 3 3 4 2 2 2 2 2 3 2 2 4 5 5 5
Wind_Direction
180 175 175 137 130 125 120 115 111 115 109 112 116 120 127 126 124 109 110 107 107 94 92 85 90 96 91 95 95 96 100 104 108 105 105 105 98 101 99 110 132 96 93
150 162 160 139 135 130 126 124 125 122 121 122 123 123 120 119 118 116 110 99 92 95 89 91 96 90 100 101 109 104 99 101 111 112 110 108 96 98 83 72 66 95 95
159 140 151 139 130 124 131 132 133 129 129 130 127 121 127 119 118 109 102 92 91 91 89 95 91 92 104 101 94 89 94 90 104 124 138 128 99 93 90 85 89 91 91
146 147 137 140 130 133 129 132 135 127 124 123 122 127 120 119 112 103 91 91 90 93 89 90 89 90 94 95 91 95 84 80 101 188 98 100 99 99 99 99 99 100 97
146 146 117 143 134 136 134 124 115 121 123 125 128 121 120 113 110 114 110 108 98 97 93 92 90 89 87 94 95 93 88 88 122 163 96 56 92 103 107 115 119 93 75
145 137 132 142 142 135 131 126 120 123 128 124 119 119 121 119 120 115 105 98 104 98 102 99 101 95 89 98 111 101 92 101 189 108 91 86 82 112 99 95 95 96 99
154 130 146 147 141 135 135 129 127 124 124 118 122 124 121 117 115 104 105 103 103 103 100 99 90 85 77 86 100 111 102 112 90 113 98 110 96 101 104 100 101 100 93
146 142 134 145 139 137 133 127 130 129 123 130 129 121 113 106 104 96 93 98 103 102 98 93 87 85 95 103 106 109 122 189 122 80 82 86 90 100 103 102 102 96 96
148 138 150 149 141 141 135 132 135 131 132 130 117 110 111 109 102 100 99 98 95 94 97 96 85 76 107 113 108 105 99 359 82 91 126 103 98 98 96 99 99 98 94
148 147 149 146 155 148 149 136 134 129 128 119 112 115 120 116 109 116 133 95 88 85 89 96 96 85 99 112 110 119 144 209 93 142 85 78 98 101 101 98 96 95 96
157 160 156 146 140 156 142 138 145 134 126 123 130 122 174 127 129 135 68 94 88 90 98 107 110 115 126 109 115 151 206 82 103 89 89 85 96 97 98 101 98 101 96
163 162 160 166 142 177 145 159 142 150 159 146 131 153 137 123 91 97 95 96 88 101 111 116 138 184 200 145 139 197 82 102 82 79 83 75 92 100 105 101 99 102 99
166 162 161 143 168 157 133 170 178 161 142 136 138 171 113 144 157 157 132 161 139 216 151 169 178 189 58 68 106 76 106 125 130 83 95 79 82 101 103 107 108 101 99
166 164 164 159 166 174 160 176 156 153 158 159 145 164 149 181 154 144 115 118 189 82 111 283 90 50 93 122 94 84 77 86 93 100 107 96 86 97 120 116 114 102 100
168 168 165 164 169 164 181 163 160 150 179 138 163 164 182 158 119 159 115 175 64 124 87 136 96 53 112 124 127 109 81 63 77 72 109 111 95 94 94 98 103 111 118
172 175 169 172 172 173 187 170 161 179 139 174 157 148 185 213 121 137 154 44 259 178 100 115 71 92 90 115 119 103 86 92 58 67 88 127 136 132 125 120 119 119 123
176 174 174 179 177 178 181 178 189 169 168 167 150 158 181 208 137 161 149 147 224 121 153 138 149 157 94 112 101 123 106 89 95 87 96 92 147 159 146 168 165 177 192
178 175 178 186 178 182 180 183 184 169 175 172 156 158 175 173 158 166 167 162 150 163 137 139 154 77 315 102 123 130 92 103 97 97 77 39 23 129 155 163 193 209 226
181 177 184 189 180 181 178 187 192 164 200 176 172 176 155 183 179 266 152 108 159 130 203 146 130 139 191 115 134 129 119 108 166 96 97 77 84 351 70 146 172 203 224
183 180 188 189 184 183 180 198 196 176 190 189 190 191 171 190 188 232 118 146 209 157 173 89 97 142 113 107 74 82 101 120 120 107 115 138 99 151 108 93 177 171 172
186 186 189 192 187 188 190 195 194 193 186 198 211 195 188 190 185 189 126 178 176 178 164 150 145 161 144 130 170 141 142 183 177 187 163 33 108 111 52 91 280 325 160
189 191 189 193 191 199 194 203 201 204 188 199 195 172 185 184 179 180 165 196 34 116 165 176 219 160 138 172 291 170 174 169 186 235 170 241 28 69 139 179 79 174 263
192 192 193 192 193 198 202 196 189 197 214 196 184 185 182 188 186 197 179 219 146 244 175 181 192 210 162 175 283 306 164 213 122 155 184 220 169 221 226 190 226 181 217
195 192 195 194 195 196 199 193 198 198 200 197 195 190 165 192 193 192 183 183 196 117 212 184 194 193 269 167 175 219 334 358 333 150 163 200 224 228 198 243 192 196 207
194 194 194 194 198 198 193 213 195 217 204 196 205 178 220 177 199 204 193 196 196 214 193 167 184 224 181 257 208 170 185 221 225 318 118 134 188 225 225 204 251 252 199
194 195 193 190 196 199 197 204 207 203 221 209 205 196 204 196 186 203 203 204 201 209 205 184 196 200 247 250 245 267 266 305 121 246 257 188 7 130 245 221 224 240 240